Location: Unnamed
(49.5054°N, 18.9950°E)
Time: 17:21:05
(UTC+02:00)

ISS - Visible Passes

Search period start: 27 March 2023 00:00
Search period end: 06 April 2023 00:00
Orbit: 414 x 422 km, 51.6° (Epoch: 27 March)

Date Brightness Start Highest point End Pass type
(mag) Time Alt. Az. Time Alt. Az. Time Alt. Az.
27 Mar -3.8 20:32:50 10° WNW 20:36:11 85° NNE 20:37:31 34° ESE visible
27 Mar -0.8 22:09:51 10° W 22:10:27 13° W 22:10:27 13° W visible
28 Mar -3.6 19:44:44 10° WNW 19:48:05 69° NNE 19:51:24 10° E visible
28 Mar -2.6 21:21:38 10° W 21:24:19 36° SW 21:24:19 36° SW visible
29 Mar -3.4 20:33:25 10° WNW 20:36:43 55° SSW 20:38:11 28° SE visible
30 Mar -3.7 19:45:14 10° WNW 19:48:35 76° SSW 19:51:56 10° ESE visible
30 Mar -1.7 21:22:33 10° W 21:24:57 18° SW 21:25:00 18° SW visible
31 Mar -2.1 20:34:01 10° W 20:36:54 27° SW 20:38:51 16° SSE visible
01 Apr -2.7 19:45:36 10° W 19:48:46 39° SSW 19:51:54 10° SE visible
02 Apr -1.1 20:35:10 10° WSW 20:36:43 13° SW 20:38:15 10° SSW visible
